Location: Acheville
(50.3840°N, 2.8827°E)
Time: 12:53:01
(UTC+00:00)

ATLAS 3B R/B - Pass Details

Date: 24 October 2021
Orbit: 989 x 1206 km, 63.8° (Epoch: 25 November)

Event Time Altitude Azimuth Distance (km) Brightness Sun altitude
Rises 17:40:24 0° 250° (WSW) 3,737 7.4 -10.5°
Reaches altitude 10° 17:43:05 10° 257° (WSW) 2,811 6.5 -10.9°
Maximum altitude 17:49:23 44° 329° (NNW) 1,426 3.6 -11.9°
Drops below altitude 10° 17:56:02 10° 41° (NE) 2,959 4.6 -12.9°
Enters shadow 17:57:13 - 44° (NE) 3,359 4.9 -13.1°
